Location: Losili
(4.4086°N, 32.7049°E)
Time: 00:44:58
(UTC+00:00)

USA 267 - Pass Details

Date: 18 September 2019
Orbit: 1102 x 1106 km, 123.0° (Epoch: 17 October)

Event Time Altitude Azimuth Distance (km) Brightness Sun altitude
Exits shadow 18:06:57 34° 203° (SSW) 1,728 4.3 -35.6°
Drops below altitude 10° 18:10:24 10° 210° (SSW) 2,961 5.7 -36.4°
Sets 18:12:53 0° 212° (SSW) 3,920 6.5 -37.1°
